(579) Sidonia
ephemeris date magn radius delta ra dec elong phase
Today5 Sep 202614.23.184 AU3.668 AU07h18m+23°58'54.2°14.9°
Opposition15 Jan 202712.63.230 AU2.254 AU07h53m+29°31'171.5°2.6°
(579) Sidonia - 2026-09-05
astro.vanbuitenen.nl


 
-1 year
-1 month
-1 day
Now
+1 day
+1 month
+1 year

The interactive orbit chart above shows the body's path through the solar system and its position at the given date. Green and blue lines are shown perpendicular to the ecliptic plane: Green if the path is above the ecliptic plane, blue if it is below. (Left-click and drag to rotate the view; Right-click and drag to move the view; Use scroll wheel to zoom in our out.)

The orbital elements of Sidonia are:

            e (Eccentricity)                : 0.0759741
            a (Semimajor axis)              : 3.0126631
            i (Inclination)                 : 11.01636
            Ω (Longitude of ascending node) : 82.62230
            ω (Argument of perihelion)      : 229.26402
            M (Mean anomaly)                : 119.08336
            Epoch                           : 2026 Jun 09

            L (Longitude of perihelion)     : 131.35868
            B (Latitude of perihelion)      : -8.32530
            P (Orbital period in years)     : 5.23            
        

The light curve chart below shows the estimated development of the minor planet's magnitude.


The all-sky chart below shows the path of the minor planet over the same period as the light curve. The current position is marked yellow.





The following chart shows the path of the minor planet in the next few days. The field of view is optimized for (~10x50) binoculars and finderscopes.




Ephemerides:
Date       Time       RA (2000)    DEC (2000)    delta   radius  elong  phase   PA    magn
2026-09-05 00:00 UT   07 18 44.0   +23 58 25     3.668    3.184   54.2   14.9   279   14.2 
2026-09-05 10:36 UT   07 19 17.8   +23 58 15     3.663    3.184   54.5   14.9   279   14.2 
2026-09-06 00:00 UT   07 20 00.4   +23 58 03     3.656    3.185   54.9   15.0   279   14.2 
2026-09-07 00:00 UT   07 21 16.4   +23 57 40     3.645    3.185   55.5   15.1   279   14.2 
2026-09-08 00:00 UT   07 22 31.8   +23 57 17     3.634    3.186   56.2   15.2   279   14.2 
2026-09-09 00:00 UT   07 23 46.8   +23 56 54     3.622    3.186   56.9   15.4   279   14.2 
2026-09-10 00:00 UT   07 25 01.2   +23 56 30     3.610    3.187   57.6   15.5   280   14.2 
2026-09-11 00:00 UT   07 26 15.2   +23 56 06     3.599    3.187   58.3   15.6   280   14.2 
2026-09-12 00:00 UT   07 27 28.6   +23 55 43     3.587    3.187   59.0   15.7   280   14.2 
2026-09-13 00:00 UT   07 28 41.5   +23 55 19     3.575    3.188   59.7   15.8   280   14.2 
2026-09-14 00:00 UT   07 29 53.9   +23 54 56     3.563    3.188   60.4   15.9   280   14.2 
2026-09-15 00:00 UT   07 31 05.7   +23 54 32     3.551    3.189   61.1   16.0   280   14.1 
2026-09-16 00:00 UT   07 32 16.9   +23 54 09     3.539    3.189   61.8   16.1   280   14.1 
2026-09-17 00:00 UT   07 33 27.6   +23 53 47     3.527    3.190   62.5   16.2   280   14.1 
2026-09-18 00:00 UT   07 34 37.7   +23 53 24     3.514    3.190   63.2   16.3   280   14.1 
2026-09-19 00:00 UT   07 35 47.2   +23 53 03     3.502    3.191   63.9   16.4   280   14.1 
2026-09-20 00:00 UT   07 36 56.1   +23 52 42     3.489    3.191   64.7   16.5   280   14.1 
2026-09-21 00:00 UT   07 38 04.4   +23 52 21     3.477    3.192   65.4   16.6   281   14.1 
2026-09-22 00:00 UT   07 39 12.1   +23 52 02     3.464    3.192   66.1   16.7   281   14.1 
2026-09-23 00:00 UT   07 40 19.2   +23 51 43     3.451    3.192   66.8   16.8   281   14.1 
2026-09-24 00:00 UT   07 41 25.7   +23 51 26     3.438    3.193   67.5   16.9   281   14.1 
2026-09-25 00:00 UT   07 42 31.5   +23 51 09     3.426    3.193   68.3   17.0   281   14.1 
2026-09-26 00:00 UT   07 43 36.7   +23 50 54     3.413    3.194   69.0   17.0   281   14.1 
2026-09-27 00:00 UT   07 44 41.2   +23 50 40     3.400    3.194   69.7   17.1   281   14.1 
2026-09-28 00:00 UT   07 45 45.1   +23 50 27     3.387    3.195   70.5   17.2   281   14.1 
2026-09-29 00:00 UT   07 46 48.2   +23 50 15     3.373    3.195   71.2   17.3   281   14.1 
2026-09-30 00:00 UT   07 47 50.7   +23 50 06     3.360    3.195   72.0   17.3   281   14.1 
2026-10-01 00:00 UT   07 48 52.5   +23 49 57     3.347    3.196   72.7   17.4   281   14.1 
2026-10-02 00:00 UT   07 49 53.6   +23 49 51     3.333    3.196   73.5   17.5   281   14.1 
2026-10-03 00:00 UT   07 50 54.0   +23 49 46     3.320    3.197   74.2   17.5   281   14.1 
2026-10-04 00:00 UT   07 51 53.6   +23 49 43     3.307    3.197   75.0   17.6   282   14.1 
2026-10-05 00:00 UT   07 52 52.5   +23 49 42     3.293    3.198   75.8   17.6   282   14.0 


    Terminology:
            
    delta:  distance between minor planet and earth in AU
    radius: distance between minor planet and sun in AU
    magn:   magnitude (brightness) estimate    
    ra:     right ascension in hours (24h = 360deg)
    dec:    declination in degrees
    elong:  elongation in degrees (angle sun-earth-minor planet)    
    phase:  phase angle in degrees (angle sun-minor planet-earth)        
    AU:     Astronomical Unit (mean distance between earth and sun: 149597870.7 km
    

Orbital elements provided by the MPC (Minor Planet Center).
Calculations by a modified version of AAPlus, a C# implementation of the AA+ project by PJ Naughter from the algorithms presented in the book "Astronomical Algorithms" by Jean Meeus.
NGC2000 dso catalog and star labels from VizieR as provided by the Strasbourg astronomical Data Center.
Tycho2 catalog from the ESO archive.